Flag for United Arab Emirates Weather past 2 weeks in Umm al-Quwain, Umm al-Quwain, United Arab Emirates

Now
63 °F

Haze.


Feels Like: 63 °F
Forecast: 72 / 76 °F
Wind: 7 mph from Southwest

Location: Sharjah International Airport

Current Time: Dec 23, 2014 at 7:20:55 AM

Latest Report: Dec 23, 2014 at 7:00 AM


Visibility: 2 mi

Pressure: 30.01 "Hg

Humidity: 88%

Dew point: 59 °F

Location of Umm al-QuwainLocation

Historic Weather in Umm al-Quwain — Graph

°F

Umm al-Quwain temperature yesterday

Maximum temperature yesterday: 77 °F (at 3:00 PM)
Minimum temperature yesterday: 57 °F (at 4:00 AM)
Average temperature yesterday: 67 °F

Past Weeks' High & Low Weather Summary

 TemperatureHumidityPressure
High86 °F (Dec 8, 12:00 PM)94% (Dec 12, 6:00 AM)30.21 "Hg (Dec 12, 6:00 AM)
Low55 °F (Dec 15, 8:00 AM)13% (Dec 10, 1:00 PM)29.92 "Hg (Dec 22, 3:00 PM)
Average70 °F56%30.08 "Hg
* Reported Dec 8 6:00 AM — Dec 23 6:00 AM, Umm al-Quwain, Weather by CustomWeather, © 2014

Note: Actual official high and low records may vary slightly from our data, if they occured in-between our weather recording intervals... More about our weather records

Advertising

Umm al-Quwain weather history for previous 24 hours

 ConditionsComfort  
Time TempWeatherWind HumidityBarometerVisibility
6:00 AM
Dec 23
63 °FPassing clouds.8 mph88%29.98 "Hg4 mi
5:00 AM64 °FPassing clouds.7 mph83%29.98 "Hg4 mi
4:00 AM64 °FPassing clouds.8 mph83%29.98 "Hg4 mi
3:00 AM64 °FPassing clouds.7 mph83%29.98 "Hg4 mi
2:00 AM64 °FPassing clouds.8 mph78%29.98 "Hg5 mi
1:00 AM64 °FPassing clouds.7 mph73%29.98 "HgN/A
12:00 AM66 °FPassing clouds.7 mph68%29.98 "HgN/A
11:00 PM
Dec 22
66 °FClear.5 mph64%29.98 "Hg10 mi
10:00 PM68 °FPassing clouds.7 mph60%29.98 "HgN/A
9:00 PM70 °FClear.5 mph60%29.98 "Hg10 mi
8:00 PM70 °FPassing clouds.3 mph64%29.95 "HgN/A
7:00 PM72 °FClear.6 mph57%29.95 "Hg10 mi
6:00 PM73 °FClear.7 mph50%29.92 "Hg10 mi
5:00 PM75 °FSunny.8 mph41%29.92 "Hg10 mi
4:00 PM75 °FSunny.12 mph41%29.92 "Hg10 mi
3:00 PM77 °FPassing clouds.12 mph47%29.92 "HgN/A
2:00 PM75 °FPassing clouds.10 mph47%29.95 "HgN/A
1:00 PM75 °FPassing clouds.7 mph50%29.98 "HgN/A
12:00 PM73 °FPassing clouds.6 mph53%29.98 "HgN/A
11:00 AM72 °FPassing clouds.8 mph57%30.01 "HgN/A
10:00 AM68 °FPassing clouds.8 mph60%30.04 "HgN/A
9:00 AM63 °FSunny.7 mph64%30.01 "Hg10 mi
8:00 AM59 °FClear.5 mph72%30.01 "Hg4 mi
7:00 AM59 °FClear.5 mph72%29.98 "Hg4 mi
Weather by CustomWeather, © 2014

See weather overviewHow to use our weather pages